Regional Weather Roundup
Issued by NWS

Home | Current Version | Previous Version | Text Only | Print | Product List | Glossary On
Versions: 1 2 3 4 5 6 7 8 9 10 11 12 13 14 15 16 17 18 19 20 21 22 23 24 25 26 27 28 29 30 31 32 33 34 35 36 37 38 39 40 41 42 43 44 45 46 47 48 49 50
000
ASUS43 KBIS 181510
RWRND

NORTH DAKOTA REGIONAL WEATHER ROUNDUP
NATIONAL WEATHER SERVICE BISMARCK ND
1000 AM CDT SAT APR 18 2015

NOTE: "FAIR" INDICATES FEW OR NO CLOUDS BELOW 12,000 FEET WITH NO
SIGNIFICANT WEATHER AND/OR OBSTRUCTIONS TO VISIBILITY.


NDZ001>003-009>011-017-181600-
NORTHWEST NORTH DAKOTA

CITY           SKY/WX    TMP DP  RH WIND       PRES   REMARKS
WILLISTON      SUNNY     53  30  41 S8        29.95F
MINOT          SUNNY     50  29  44 SE7       30.00F
MINOT AFB      SUNNY     50  31  48 SE12      29.99F
$$

NDZ018>021-031>035-040>046-181600-
SOUTHWEST NORTH DAKOTA

CITY           SKY/WX    TMP DP  RH WIND       PRES   REMARKS
BISMARCK       CLOUDY    47  31  53 E6        30.04S
DICKINSON      SUNNY     56  35  45 SW5       29.97F
GARRISON         N/A     52  29  41 SE12      30.00F
HETTINGER ARPT CLOUDY    49  38  65 CALM      30.01F
$$

NDZ004>008-012>016-024-026-027-054-181600-
NORTHEAST NORTH DAKOTA

CITY           SKY/WX    TMP DP  RH WIND       PRES   REMARKS
GRAND FORKS    MOSUNNY   51  32  48 SE10      30.10F
GRND FRKS AFB  SUNNY     49  31  49 SE12      30.09F
DEVILS LAKE    SUNNY     46  30  53 SE15      30.05F
$$

NDZ022-023-025-028>030-036>039-047>053-181600-
SOUTHEAST NORTH DAKOTA

CITY           SKY/WX    TMP DP  RH WIND       PRES   REMARKS
FARGO          SUNNY     58  30  34 SE14      30.07F
JAMESTOWN      MOSUNNY   54  28  36 SE16      30.04F
$$




USA.gov is the U.S. government's official web portal to all federal, state and local government web resources and services.